COSMOS 2460 (732)

Last updated on Mon Jun 22 2026 00:03:26 GMT+0000 (Coordinated Universal Time)

1 36402U 10007C 26172.37328227 -.00000068 00000+0 00000+0 0 9998 2 36402 65.4181 314.3249 0002093 116.2871 240.7895 2.13101449126816
UTC large
Height (km)
Speed (km/s)
/
Latitude / Longitude
Inclination (degrees)
Orbital Period (minutes)
Azimuth
Elevation
Range (km)
Doppler Factor

Next 0 passes for location: London (51.5072 / 0.1276)

No passes found over London.
COSMOS 2460 (732)